World > North America > United States > Nebraska

Thomas County, Nebraska Regional Weather

Lat: 41.90N, Lon: 100.55W
Wx Zone: NEZ025Web Search
Thomas County Weather Warning NWS WEATHER ALERT FOR THE THOMAS COUNTY, NE AREA - Issued: 1013 AM CDT Sun Apr 11 2021 Thomas County Weather Warning  

If you are on your PC, you can easily pass this page to your phone by scanning the QR Code near the bottom with your camera.

Feedback


°F Click to change Thomas County hourly weather to Imperial units.Click to change Thomas County hourly weather to Metric units. °C
Thomas County Weather Map
UTC Time: 4/11/2021, 16:19
Your Time:

Thomas County, NE Regional Weather

Expires:202104111700;;391084
ASUS43 KOAX 111610
RWRNE 

WEATHER ROUNDUP FOR NEBRASKA
NATIONAL WEATHER SERVICE OMAHA NE
1100 AM CDT SUN APR 11 2021

NOTES: SATELLITE DATA IS BEING USED TO AUGMENT CLOUD COVER ABOVE
       12000 FEET.
       "FAIR" INDICATES FEW OR NO CLOUDS BELOW 12,000 FEET WITH NO
       SIGNIFICANT WEATHER AND/OR OBSTRUCTIONS TO VISIBILITY.

   

NEZ005>010-023>029-035>040-094-111700-
NORTH CENTRAL NEBRASKA
  
CITY           SKY/WX    TMP DP  RH WIND       PRES   REMARKS
VALENTINE      CLOUDY    46  32  58 NW23G43   29.75R                  
AINSWORTH      PTSUNNY   47  32  55 NW36G43   29.70R                  
BROKEN BOW     SUNNY     51  32  48 NW32G44   29.69R                  
O'NEILL        SUNNY     52  26  36 SW6       29.64R                  
ORD            SUNNY     53  34  48 NW21G33   29.65R                  
THEDFORD       CLOUDY    46  32  57 NW28G36   29.76R                  
$$
 

SKY/WX - Weather  TMP - Temperature  DP - Dew Point  RH - Relative Humidity
WIND - Wind Direction/Speed PRES - Barometric Pressure VSB - Visibility
WCI - Wind Chill Index E13G22 Wind - East Wind 13 mph/Gusts of 22 mph